1998-067TT

Last updated on Thu Jul 28 2022 00:02:05 GMT+0000 (Coordinated Universal Time)

1 53308U 98067TT 22206.86955286 .00011607 00000+0 20750-3 0 9991 2 53308 51.6418 144.9797 0004462 43.2801 316.8532 15.50481316 722
UTC large
Height (km)
Speed (km/s)
/
Latitude / Longitude
Inclination (degrees)
Orbital Period (minutes)
Azimuth
Elevation
Range (km)
Doppler Factor

Next 0 passes for location: London (51.5072 / 0.1276)

Sorry there are no passes over London.